Regional Weather Roundup
Issued by NWS

Home | Current Version | Previous Version | Text Only | Print | Product List | Glossary Off
Versions: 1 2 3 4 5 6 7 8 9 10 11 12 13 14 15 16 17 18 19 20 21 22 23 24 25 26 27 28 29 30 31 32 33 34 35 36 37 38 39 40 41 42 43 44 45 46 47 48 49 50

000
ASUS43 KFSD 232102
RWRSD

WEATHER ROUNDUP FOR SOUTH DAKOTA
NATIONAL WEATHER SERVICE SIOUX FALLS SD
300 PM CST SUN NOV 23 2014

NOTE: "FAIR" INDICATES FEW OR NO CLOUDS BELOW 12,000 FEET WITH NO
SIGNIFICANT WEATHER AND/OR OBSTRUCTIONS TO VISIBILITY.


SDZ001>005-009-010-012>017-232200-
NORTHWEST AND NORTH CENTRAL SOUTH DAKOTA

CITY           SKY/WX    TMP DP  RH WIND       PRES   REMARKS
BUFFALO          N/A     34  20  56 NW35G48   29.61R WCI  19
FAITH            N/A     32  20  61 NW33G45   29.64R WCI  17
MOBRIDGE       CLOUDY    30  20  66 NW24G36   29.59R WCI  16
$$

SDZ012>016-024>037-041>051-057-063-072>074-232200-
SOUTHWEST AND SOUTH CENTRAL SOUTH DAKOTA

CITY           SKY/WX    TMP DP  RH WIND       PRES   REMARKS
RAPID CTY ARPT PTSUNNY   40  21  46 NW40G51   29.69S
PIERRE         CLOUDY    37  23  56 NW30G44   29.61R
CUSTER         PTSUNNY   29  15  56 NW15G32   29.67S WCI  18
ELLSWORTH AFB  CLOUDY    39  22  50 NW35G47   29.68R
PHILIP         CLOUDY   N/A N/A N/A NW28G45   29.65R
PINE RIDGE     PTSUNNY   41  21  44 W22G32    29.72R
WINNER         CLOUDY    45  24  43 NW29G37   29.61F
$$

SDZ004>011-016>023-039-040-232200-
NORTHEAST SOUTH DAKOTA

CITY           SKY/WX    TMP DP  RH WIND       PRES   REMARKS
ABERDEEN       CLOUDY    33  23  66 NW23G35   29.54R WCI  21
WATERTOWN      CLOUDY    35  26  69 NW20G31   29.48S WCI  24
SISSETON         N/A     36  27  69 NW21G31   29.47R
$$

SDZ017-020-022-023-036>040-048>070-232200-
SOUTHEAST SOUTH DAKOTA

CITY           SKY/WX    TMP DP  RH WIND       PRES   REMARKS
SIOUX FALLS    CLOUDY    42  31  64 NW20G37   29.50F
HURON          CLOUDY    40  27  59 NW25G39   29.54F
CHAMBERLAIN    CLOUDY    41  28  61 NW17G26   29.59F
YANKTON        PTSUNNY  N/A N/A N/A NW28G38   29.53R
$$

ABBREVIATIONS USED IN REMARKS
   TC - TEMPERATURE IN CELSIUS
  WCI - WIND CHILL INDEX
   HX - HEAT INDEX
  VSB - VISIBILITY



USA.gov is the U.S. government's official web portal to all federal, state and local government web resources and services.